EW4921 Weather Reports


Display with metric or nautical units.
time (UTC)temp
F
wind
direction
speed
MPH
gust
MPH
rain 1hr
in
rain 24hr
in
rain mn
in
humidity
%
barometer
mb
20260905060025 60 1 0.0 2.0 0.00 0.00 0.00 87 1014.3
20260905055519 61 46 0.0 1.0 0.00 0.00 0.00 87 1014.3
20260905055032 61 89 0.0 1.0 0.00 0.00 0.00 87 1014.2
20260905054535 61 1 0.0 1.0 0.00 0.00 0.00 87 1014.3
20260905054022 61 1 0.0 1.0 0.00 0.00 0.00 87 1014.3
20260905053523 61 1 0.0 1.0 0.00 0.00 0.00 87 1014.3
20260905053041 61 28 0.0 1.0 0.00 0.00 0.00 87 1014.3
20260905052522 62 46 0.0 2.0 0.00 0.00 0.00 87 1014.4
20260905052020 62 314 1.0 2.0 0.00 0.00 0.00 87 1014.5
20260905051535 62 331 0.0 1.0 0.00 0.00 0.00 87 1014.5
20260905051025 62 1 1.0 1.0 0.00 0.00 0.00 86 1014.4
20260905050551 62 340 0.0 1.0 0.00 0.00 0.00 86 1014.5
20260905050017 62 63 0.0 2.0 0.00 0.00 0.00 86 1014.4
20260905045519 63 46 0.0 2.0 0.00 0.00 0.00 86 1014.5
20260905045033 63 89 0.0 2.0 0.00 0.00 0.00 86 1014.5
20260905044531 63 46 0.0 1.0 0.00 0.00 0.00 86 1014.4
20260905044043 63 89 0.0 1.0 0.00 0.00 0.00 85 1014.4
20260905043544 63 331 0.0 1.0 0.00 0.00 0.00 85 1014.6
20260905043043 63 1 0.0 1.0 0.00 0.00 0.00 85 1014.5
20260905042524 64 269 0.0 2.0 0.00 0.00 0.00 85 1014.5
20260905042040 64 1 1.0 2.0 0.00 0.00 0.00 84 1014.4
20260905041538 64 331 0.0 1.0 0.00 0.00 0.00 84 1014.3
20260905041015 64 314 0.0 1.0 0.00 0.00 0.00 83 1014.3
20260905040601 64 1 0.0 1.0 0.00 0.00 0.00 83 1014.2
20260905040027 65 1 0.0 1.0 0.00 0.00 0.00 83 1014.1
20260905035529 65 46 0.0 1.0 0.00 0.00 0.00 82 1014.2
20260905035056 65 1 0.0 2.0 0.00 0.00 0.00 82 1014.2
20260905034537 65 1 1.0 2.0 0.00 0.00 0.00 82 1014.1
20260905034034 65 324 0.0 2.0 0.00 0.00 0.00 82 1014.0
20260905033535 66 89 1.0 3.0 0.00 0.00 0.00 82 1013.9
20260905033027 66 295 1.0 3.0 0.00 0.00 0.00 81 1013.9
20260905032519 66 46 1.0 3.0 0.00 0.00 0.00 81 1013.8
20260905032018 66 240 1.0 2.0 0.00 0.00 0.00 80 1013.7
20260905031602 67 314 1.0 2.0 0.00 0.00 0.00 80 1013.7
20260905031028 67 206 1.0 2.0 0.00 0.00 0.00 80 1013.7
20260905030552 67 314 1.0 4.0 0.00 0.00 0.00 80 1013.7
20260905030034 67 269 2.0 4.0 0.00 0.00 0.00 79 1013.6
20260905025535 68 295 1.0 3.0 0.00 0.00 0.00 78 1013.6
20260905025026 68 269 1.0 3.0 0.00 0.00 0.00 77 1013.6
20260905024521 68 178 1.0 2.0 0.00 0.00 0.00 77 1013.6
20260905024033 69 250 1.0 2.0 0.00 0.00 0.00 76 1013.6
20260905023534 69 314 1.0 3.0 0.00 0.00 0.00 75 1013.5
20260905023022 69 89 1.0 3.0 0.00 0.00 0.00 75 1013.6
20260905022524 69 1 1.0 2.0 0.00 0.00 0.00 73 1013.6
20260905022024 70 135 0.0 2.0 0.00 0.00 0.00 72 1013.5
20260905021545 70 89 1.0 2.0 0.00 0.00 0.00 72 1013.5
20260905021023 70 1 0.0 3.0 0.00 0.00 0.00 71 1013.5
20260905020547 70 15 1.0 3.0 0.00 0.00 0.00 71 1013.6
20260905020018 71 334 1.0 3.0 0.00 0.00 0.00 71 1013.5
20260905015601 71 295 1.0 4.0 0.00 0.00 0.00 71 1013.5
20260905015034 71 46 2.0 3.0 0.00 0.00 0.00 71 1013.5
20260905014536 72 15 1.0 3.0 0.00 0.00 0.00 71 1013.6
20260905014049 72 112 2.0 3.0 0.00 0.00 0.00 71 1013.6
20260905013519 72 89 0.0 3.0 0.00 0.00 0.00 70 1013.5
20260905013052 72 295 1.0 5.0 0.00 0.00 0.00 70 1013.5
20260905012534 72 317 2.0 6.0 0.00 0.00 0.00 69 1013.6
20260905012024 73 295 2.0 8.0 0.00 0.00 0.00 68 1013.7
20260905011525 73 161 2.0 8.0 0.00 0.00 0.00 67 1013.7
20260905011040 73 76 3.0 7.0 0.00 0.00 0.00 67 1013.6
20260905010542 73 72 1.0 8.0 0.00 0.00 0.00 66 1013.7
20260905010034 74 269 2.0 8.0 0.00 0.00 0.00 66 1013.7
20260905005534 74 335 3.0 7.0 0.00 0.00 0.00 66 1013.5
20260905005025 74 32 3.0 8.0 0.00 0.00 0.00 65 1013.6
20260905004541 74 321 3.0 8.0 0.00 0.00 0.00 65 1013.6
20260905004019 74 321 3.0 10.0 0.00 0.00 0.00 65 1013.5
20260905003515 75 222 2.0 10.0 0.00 0.00 0.00 63 1013.5
20260905003033 75 201 2.0 10.0 0.00 0.00 0.00 63 1013.4
20260905002535 76 1 4.0 9.0 0.00 0.00 0.00 62 1013.5
20260905002028 76 199 2.0 10.0 0.00 0.00 0.00 63 1013.4
20260905001525 77 222 4.0 10.0 0.00 0.00 0.00 61 1013.4
20260905001024 77 331 2.0 8.0 0.00 0.00 0.00 61 1013.5
20260905000548 76 28 2.0 7.0 0.00 0.00 0.00 61 1013.5
20260905000033 76 309 2.0 7.0 0.00 0.00 0.00 60 1013.4
20260904235533 76 178 3.0 9.0 0.00 0.00 0.00 60 1013.4
20260904235025 77 340 3.0 9.0 0.00 0.00 0.00 60 1013.5
20260904234524 77 216 4.0 12.0 0.00 0.00 0.00 60 1013.4
20260904234021 77 269 4.0 12.0 0.00 0.00 0.00 61 1013.4
20260904233516 78 173 4.0 10.0 0.00 0.00 0.00 60 1013.5
20260904233016 78 309 2.0 9.0 0.00 0.00 0.00 60 1013.5
20260904232538 79 243 4.0 9.0 0.00 0.00 0.00 59 1013.5
20260904232029 79 269 4.0 9.0 0.00 0.00 0.00 59 1013.4
20260904231525 80 318 2.0 9.0 0.00 0.00 0.00 59 1013.3
20260904231035 80 178 2.0 10.0 0.00 0.00 0.00 59 1013.3
20260904230605 81 347 3.0 10.0 0.00 0.00 0.00 58 1013.2
20260904230032 80 257 3.0 10.0 0.00 0.00 0.00 58 1013.3
20260904225535 80 290 3.0 6.0 0.00 0.00 0.00 57 1013.4
20260904225027 80 354 2.0 10.0 0.00 0.00 0.00 59 1013.3
20260904224525 80 279 4.0 10.0 0.00 0.00 0.00 58 1013.4
20260904224023 81 315 3.0 8.0 0.00 0.00 0.00 58 1013.3
20260904223525 81 25 3.0 8.0 0.00 0.00 0.00 57 1013.4
20260904223024 81 20 4.0 9.0 0.00 0.00 0.00 57 1013.5
20260904222525 81 226 3.0 9.0 0.00 0.00 0.00 57 1013.5
20260904222025 81 40 3.0 9.0 0.00 0.00 0.00 58 1013.5
20260904221525 81 257 4.0 9.0 0.00 0.00 0.00 59 1013.5
20260904221017 81 312 3.0 8.0 0.00 0.00 0.00 57 1013.5
20260904220542 81 327 3.0 8.0 0.00 0.00 0.00 58 1013.5
20260904220034 81 302 4.0 11.0 0.00 0.00 0.00 58 1013.6
20260904215536 81 178 3.0 11.0 0.00 0.00 0.00 59 1013.6
20260904215025 81 33 3.0 7.0 0.00 0.00 0.00 60 1013.6
20260904214527 81 186 4.0 7.0 0.00 0.00 0.00 59 1013.6
20260904214017 81 276 3.0 9.0 0.00 0.00 0.00 59 1013.6
20260904213519 81 310 4.0 9.0 0.00 0.00 0.00 58 1013.7
20260904213057 81 201 4.0 9.0 0.00 0.00 0.00 58 1013.5
20260904212537 81 269 3.0 8.0 0.00 0.00 0.00 59 1013.6
20260904212048 82 269 3.0 8.0 0.00 0.00 0.00 59 1013.6
20260904211517 82 286 3.0 10.0 0.00 0.00 0.00 58 1013.5
20260904211049 81 305 2.0 10.0 0.00 0.00 0.00 59 1013.4
20260904210552 82 89 2.0 8.0 0.00 0.00 0.00 57 1013.3
20260904210016 81 349 3.0 11.0 0.00 0.00 0.00 59 1013.4
20260904205536 82 193 3.0 13.0 0.00 0.00 0.00 57 1013.4
20260904205024 81 89 5.0 13.0 0.00 0.00 0.00 56 1013.4
20260904204524 82 20 4.0 11.0 0.00 0.00 0.00 55 1013.3
20260904204023 83 35 5.0 10.0 0.00 0.00 0.00 51 1013.4
20260904203525 84 204 3.0 10.0 0.00 0.00 0.00 48 1013.3
20260904203017 84 56 2.0 7.0 0.00 0.00 0.00 47 1013.3
20260904202626 84 72 1.0 8.0 0.00 0.00 0.00 50 1013.3
20260904202026 84 229 4.0 7.0 0.00 0.00 0.00 48 1013.4
20260904201539 83 220 4.0 9.0 0.00 0.00 0.00 48 1013.4
20260904201029 83 220 5.0 9.0 0.00 0.00 0.00 48 1013.4
20260904200603 82 218 3.0 6.0 0.00 0.00 0.00 49 1013.5
20260904200044 81 191 2.0 7.0 0.00 0.00 0.00 50 1013.5
20260904195517 81 314 3.0 9.0 0.00 0.00 0.00 51 1013.5
20260904195017 82 206 4.0 9.0 0.00 0.00 0.00 48 1013.7
20260904194537 81 46 3.0 7.0 0.00 0.00 0.00 49 1013.7
20260904194026 81 231 2.0 7.0 0.00 0.00 0.00 50 1013.8
20260904193528 81 1 1.0 7.0 0.00 0.00 0.00 51 1013.9
20260904193034 81 222 2.0 7.0 0.00 0.00 0.00 48 1013.9
20260904192536 81 178 4.0 8.0 0.00 0.00 0.00 50 1013.9
20260904192027 80 208 2.0 7.0 0.00 0.00 0.00 51 1014.0
20260904191540 80 168 3.0 7.0 0.00 0.00 0.00 49 1014.1
20260904191030 79 164 2.0 6.0 0.00 0.00 0.00 51 1014.1
20260904190554 79 223 2.0 7.0 0.00 0.00 0.00 52 1014.2
20260904190035 79 220 3.0 7.0 0.00 0.00 0.00 54 1014.3
20260904185538 78 56 3.0 5.0 0.00 0.00 0.00 52 1014.3
20260904185017 78 112 1.0 7.0 0.00 0.00 0.00 52 1014.4
20260904184537 78 206 3.0 7.0 0.00 0.00 0.00 55 1014.3
20260904184028 78 165 1.0 6.0 0.00 0.00 0.00 58 1014.4
20260904183524 77 210 2.0 6.0 0.00 0.00 0.00 56 1014.4
20260904183036 77 178 3.0 6.0 0.00 0.00 0.00 59 1014.4
20260904182537 76 255 2.0 5.0 0.00 0.00 0.00 53 1014.5
20260904182026 76 166 2.0 5.0 0.00 0.00 0.00 58 1014.7
20260904181521 76 187 3.0 6.0 0.00 0.00 0.00 58 1014.7
20260904181033 76 252 3.0 6.0 0.00 0.00 0.00 60 1014.9
20260904180550 75 216 2.0 5.0 0.00 0.00 0.00 60 1014.8
20260904180024 74 335 2.0 5.0 0.00 0.00 0.00 62 1014.8
20260904175546 74 89 1.0 5.0 0.00 0.00 0.00 57 1014.9
20260904175044 74 222 1.0 5.0 0.00 0.00 0.00 60 1015.0
20260904174545 74 199 3.0 6.0 0.00 0.00 0.00 63 1014.9
20260904174020 73 227 3.0 5.0 0.00 0.00 0.00 65 1014.8
20260904173522 72 314 2.0 6.0 0.00 0.00 0.00 65 1014.8
20260904173020 72 140 2.0 6.0 0.00 0.00 0.00 64 1014.8
20260904172521 73 354 1.0 5.0 0.00 0.00 0.00 62 1014.9
20260904172031 73 223 2.0 5.0 0.00 0.00 0.00 64 1014.8
20260904171532 72 178 2.0 4.0 0.00 0.00 0.00 65 1014.8
20260904171100 72 306 1.0 6.0 0.00 0.00 0.00 68 1014.7
20260904170604 71 206 2.0 8.0 0.00 0.00 0.00 68 1014.7
20260904170028 70 231 4.0 8.0 0.00 0.00 0.00 68 1014.7
20260904165522 70 135 2.0 3.0 0.00 0.00 0.00 70 1014.6
20260904165033 70 46 2.0 4.0 0.00 0.00 0.00 71 1014.6
20260904164528 70 89 1.0 4.0 0.00 0.00 0.00 73 1014.6
20260904164023 69 152 1.0 3.0 0.00 0.00 0.00 72 1014.6
20260904163544 69 56 2.0 3.0 0.00 0.00 0.00 75 1014.7
20260904163034 69 72 1.0 3.0 0.00 0.00 0.00 73 1014.7
20260904162535 69 63 1.0 5.0 0.00 0.00 0.00 75 1014.7
20260904162022 68 127 2.0 5.0 0.00 0.00 0.00 74 1014.7
20260904161517 68 120 1.0 3.0 0.00 0.00 0.00 75 1014.6
20260904161027 67 139 2.0 5.0 0.00 0.00 0.00 77 1014.5
20260904160544 67 269 2.0 5.0 0.00 0.00 0.00 75 1014.5
20260904160030 66 152 2.0 5.0 0.00 0.00 0.00 77 1014.5
20260904155545 66 152 2.0 5.0 0.00 0.00 0.00 78 1014.5
20260904155035 65 152 2.0 4.0 0.00 0.00 0.00 81 1014.5
20260904154536 64 187 1.0 7.0 0.00 0.00 0.00 83 1014.4
20260904154026 64 117 3.0 7.0 0.00 0.00 0.00 83 1014.4
20260904153538 63 121 2.0 7.0 0.00 0.00 0.00 84 1014.3
20260904153027 63 162 1.0 6.0 0.00 0.00 0.00 87 1014.3
20260904152524 62 290 2.0 6.0 0.00 0.00 0.00 88 1014.3
20260904152016 62 206 1.0 5.0 0.00 0.00 0.00 89 1014.4
20260904151536 61 160 2.0 5.0 0.00 0.00 0.00 91 1014.3
20260904151026 61 1 1.0 5.0 0.00 0.00 0.00 92 1014.3
20260904150621 60 147 1.0 4.0 0.00 0.00 0.00 92 1014.2
20260904150021 59 46 2.0 3.0 0.00 0.00 0.00 92 1014.2
20260904145543 59 135 0.0 2.0 0.00 0.00 0.00 92 1014.2
20260904145021 59 89 0.0 1.0 0.00 0.00 0.00 91 1014.2
20260904144523 59 178 0.0 1.0 0.00 0.00 0.00 91 1014.1
20260904144021 59 117 0.0 1.0 0.00 0.00 0.00 91 1014.1
20260904143523 59 135 0.0 1.0 0.00 0.00 0.00 91 1014.1
20260904143031 59 72 0.0 1.0 0.00 0.00 0.00 90 1014.0
20260904142534 59 1 0.0 1.0 0.00 0.00 0.00 90 1014.0
20260904142045 59 1 0.0 1.0 0.00 0.00 0.00 90 1013.9
20260904141538 59 46 0.0 1.0 0.00 0.00 0.00 91 1013.9
20260904141029 59 178 1.0 1.0 0.00 0.00 0.00 91 1013.8
20260904140550 59 269 0.0 1.0 0.00 0.00 0.00 91 1013.7
20260904140022 59 135 0.0 3.0 0.00 0.00 0.00 91 1013.5
20260904135522 59 89 0.0 2.0 0.00 0.00 0.00 91 1013.5
20260904135022 59 46 1.0 3.0 0.00 0.00 0.00 91 1013.4
20260904134523 59 63 1.0 3.0 0.00 0.00 0.00 91 1013.4
20260904134015 59 1 0.0 2.0 0.00 0.00 0.00 91 1013.4
20260904133552 59 63 0.0 2.0 0.00 0.00 0.00 91 1013.4
20260904133023 59 63 0.0 2.0 0.00 0.00 0.00 91 1013.4
20260904132518 59 331 1.0 3.0 0.00 0.00 0.00 92 1013.4
20260904132036 59 46 1.0 3.0 0.00 0.00 0.00 92 1013.4
20260904131534 59 331 1.0 4.0 0.00 0.00 0.00 91 1013.3
20260904131023 58 308 1.0 4.0 0.00 0.00 0.00 91 1013.3
20260904130546 58 89 0.0 2.0 0.00 0.00 0.00 91 1013.3
20260904130052 58 72 1.0 2.0 0.00 0.00 0.00 91 1013.4
20260904125533 58 340 1.0 2.0 0.00 0.00 0.00 90 1013.4
20260904125024 58 89 1.0 2.0 0.00 0.00 0.00 90 1013.3
20260904124542 58 46 0.0 3.0 0.00 0.00 0.00 90 1013.2
20260904124039 58 28 1.0 3.0 0.00 0.00 0.00 90 1013.2
20260904123540 58 1 1.0 3.0 0.00 0.00 0.00 90 1013.3
20260904123030 58 1 1.0 3.0 0.00 0.00 0.00 90 1013.2
20260904122533 58 20 1.0 4.0 0.00 0.00 0.00 90 1013.2
20260904122024 58 331 2.0 4.0 0.00 0.00 0.00 90 1013.2
20260904121519 58 89 1.0 2.0 0.00 0.00 0.00 89 1013.2
20260904121034 58 28 1.0 5.0 0.00 0.00 0.00 89 1013.1
20260904120558 58 1 1.0 5.0 0.00 0.00 0.00 89 1013.1
20260904120044 58 340 1.0 5.0 0.00 0.00 0.00 89 1013.2
20260904115545 59 28 1.0 5.0 0.00 0.00 0.00 90 1013.1
20260904115020 59 46 1.0 3.0 0.00 0.00 0.00 91 1013.1
20260904114522 58 59 1.0 2.0 0.00 0.00 0.00 91 1013.1
20260904114032 58 178 0.0 2.0 0.00 0.00 0.00 91 1013.2
20260904113534 58 89 1.0 3.0 0.00 0.00 0.00 91 1013.2
20260904113024 58 46 2.0 3.0 0.00 0.00 0.00 91 1013.2
20260904112541 57 1 1.0 2.0 0.00 0.00 0.00 91 1013.2
20260904112020 57 331 1.0 4.0 0.00 0.00 0.00 91 1013.1
20260904111542 57 56 1.0 4.0 0.00 0.00 0.00 91 1013.2
20260904111039 57 46 0.0 2.0 0.00 0.00 0.00 92 1013.0
20260904110601 57 53 1.0 2.0 0.00 0.00 0.00 92 1013.1
20260904110022 56 63 1.0 5.0 0.00 0.00 0.00 92 1013.0
20260904105523 55 89 2.0 5.0 0.00 0.00 0.00 91 1013.0
20260904105016 55 105 1.0 3.0 0.00 0.00 0.00 91 1013.0
20260904104536 55 89 1.0 3.0 0.00 0.00 0.00 90 1013.0
20260904103523 55 89 1.0 2.0 0.00 0.00 0.00 90 1013.0
20260904103021 55 63 1.0 2.0 0.00 0.00 0.00 90 1012.8
20260904102523 55 46 0.0 2.0 0.00 0.00 0.00 89 1012.9
20260904102053 55 46 0.0 2.0 0.00 0.00 0.00 89 1012.9
20260904101534 55 295 1.0 2.0 0.00 0.00 0.00 89 1012.9
20260904101026 55 1 0.0 2.0 0.00 0.00 0.00 89 1012.8
20260904100540 55 63 1.0 2.0 0.00 0.00 0.00 89 1012.8
20260904100036 55 269 0.0 2.0 0.00 0.00 0.00 89 1012.9
20260904095557 55 314 1.0 1.0 0.00 0.00 0.00 89 1012.9
20260904095028 55 46 0.0 1.0 0.00 0.00 0.00 89 1012.9
20260904094527 55 46 0.0 1.0 0.00 0.00 0.00 89 1012.9
20260904094033 55 89 1.0 1.0 0.00 0.00 0.00 89 1012.8
20260904093553 55 46 0.0 1.0 0.00 0.00 0.00 88 1012.7
20260904093026 55 1 0.0 1.0 0.00 0.00 0.00 88 1012.6
20260904092527 55 46 0.0 2.0 0.00 0.00 0.00 88 1012.6
20260904092022 55 124 0.0 2.0 0.00 0.00 0.00 88 1012.7
20260904091541 55 178 0.0 1.0 0.00 0.00 0.00 88 1012.8
20260904091018 55 331 0.0 1.0 0.00 0.00 0.00 88 1012.8
20260904090543 55 63 0.0 2.0 0.00 0.00 0.00 87 1012.8
20260904090017 55 178 1.0 2.0 0.00 0.00 0.00 87 1012.7
20260904085537 56 344 0.0 1.0 0.00 0.00 0.00 87 1012.8
20260904085028 56 340 0.0 1.0 0.00 0.00 0.00 87 1012.9
20260904084525 56 340 1.0 2.0 0.00 0.00 0.00 87 1012.9
20260904084024 56 28 1.0 2.0 0.00 0.00 0.00 88 1012.9
20260904083539 56 360 1.0 2.0 0.00 0.00 0.00 88 1012.9
20260904083052 56 89 1.0 2.0 0.00 0.00 0.00 87 1012.9
20260904082533 56 1 0.0 2.0 0.00 0.00 0.00 87 1013.0
20260904082020 56 63 1.0 1.0 0.00 0.00 0.00 87 1013.1
20260904081521 56 72 0.0 1.0 0.00 0.00 0.00 87 1013.2
20260904081019 56 89 0.0 1.0 0.00 0.00 0.00 87 1013.1
20260904080601 56 46 0.0 1.0 0.00 0.00 0.00 87 1013.2
20260904080047 56 1 0.0 2.0 0.00 0.00 0.00 86 1013.2
20260904075542 57 331 0.0 1.0 0.00 0.00 0.00 86 1013.2
20260904075040 57 46 0.0 1.0 0.00 0.00 0.00 86 1013.3
20260904074603 57 331 0.0 1.0 0.00 0.00 0.00 86 1013.2
20260904074034 57 28 1.0 2.0 0.00 0.00 0.00 86 1013.2
20260904073534 57 63 0.0 1.0 0.00 0.00 0.00 86 1013.2
20260904073026 57 89 0.0 1.0 0.00 0.00 0.00 86 1013.2
20260904072526 57 1 0.0 1.0 0.00 0.00 0.00 86 1013.2
20260904072014 57 1 0.0 2.0 0.00 0.00 0.00 85 1013.1
20260904071517 57 1 0.0 2.0 0.00 0.00 0.00 85 1013.1
20260904071028 57 11 1.0 2.0 0.00 0.00 0.00 85 1013.1
20260904070551 57 20 0.0 2.0 0.00 0.00 0.00 85 1013.2
20260904070017 58 1 1.0 2.0 0.00 0.00 0.00 85 1013.1
20260904065534 58 1 0.0 2.0 0.00 0.00 0.00 85 1013.1
20260904065025 58 1 0.0 2.0 0.00 0.00 0.00 85 1013.1
20260904064526 58 35 1.0 2.0 0.00 0.00 0.00 85 1013.1
20260904064024 58 1 1.0 2.0 0.00 0.00 0.00 84 1013.1
20260904063525 58 1 1.0 2.0 0.00 0.00 0.00 84 1013.0
20260904063016 58 1 1.0 2.0 0.00 0.00 0.00 84 1012.9
20260904062554 58 46 0.0 2.0 0.00 0.00 0.00 84 1012.9
20260904062024 58 28 1.0 2.0 0.00 0.00 0.00 84 1012.9
20260904061522 59 1 1.0 2.0 0.00 0.00 0.00 84 1012.9
20260904061034 59 35 1.0 2.0 0.00 0.00 0.00 83 1012.9
20260904060601 59 35 1.0 2.0 0.00 0.00 0.00 83 1012.9